Flag for U.S.A. Weather past 2 weeks in Lexington, Virginia, U.S.A.

Now
54 °F

Sunny.


Feels Like: 50 °F
Forecast: 45 / 68 °F
Wind: 10 mph from West

Location: Hot Springs / Ingalls

Current Time: Oct 24, 2014 at 2:32:08 PM

Latest Report: Oct 24, 2014 at 1:55 PM


Visibility: 10 mi

Pressure: 30.02 "Hg

Humidity: 55%

Dew point: 38 °F

Location of LexingtonLocation

Historic Weather in Lexington — Graph

°F

Lexington temperature yesterday

Maximum temperature yesterday: 49 °F (at 2:15 PM)
Minimum temperature yesterday: 38 °F (at 4:55 AM)
Average temperature yesterday: 41 °F

Past Weeks' High & Low Weather Summary

 TemperatureHumidityPressure
High65 °F (Oct 9, 3:15 PM)100% (Oct 13, 1:35 PM)30.29 "Hg (Oct 13, 1:35 PM)
Low36 °F (Oct 19, 7:15 AM)10% (Oct 20, 3:30 AM)29.71 "Hg (Oct 18, 4:55 AM)
Average50 °F87%30.00 "Hg
* Reported Oct 9 1:15 PM — Oct 24 1:15 PM, Lexington, Weather by CustomWeather, © 2014

Note: Actual official high and low records may vary slightly from our data, if they occured in-between our weather recording intervals... More about our weather records

Advertising

Lexington weather history for previous 24 hours

 ConditionsComfort  
Time TempWeatherWind HumidityBarometerVisibility
1:15 PM
Oct 24
52 °FSunny.13 mph59%30.03 "Hg10 mi
12:55 PM50 °FSunny.13 mph67%30.03 "Hg10 mi
12:15 PM46 °FSunny.10 mph75%30.05 "Hg10 mi
11:55 AM46 °FSunny.12 mph73%30.05 "Hg10 mi
11:35 AM47 °FSunny.14 mph72%30.05 "Hg10 mi
11:15 AM46 °FSunny.13 mph75%30.05 "Hg10 mi
10:55 AM45 °FSunny.12 mph76%30.06 "Hg10 mi
10:35 AM45 °FSunny.14 mph77%30.05 "Hg10 mi
10:15 AM45 °FSunny.15 mph79%30.05 "Hg10 mi
9:55 AM42 °FSunny.17 mph85%30.04 "Hg10 mi
9:35 AM42 °FSunny.14 mph86%30.04 "Hg10 mi
9:15 AM42 °FSunny.16 mph88%30.05 "Hg10 mi
8:55 AM41 °FSunny.18 mph90%30.05 "Hg10 mi
8:35 AM41 °FClear.17 mph92%30.04 "Hg10 mi
8:15 AM40 °FClear.14 mph92%30.04 "Hg10 mi
7:55 AM40 °FClear.14 mph93%30.04 "Hg10 mi
7:35 AM40 °FClear.14 mph93%30.04 "Hg10 mi
7:15 AM40 °FClear.14 mph94%30.04 "Hg10 mi
6:55 AM40 °FClear.15 mph93%30.03 "Hg10 mi
6:35 AM40 °FClear.18 mph94%30.03 "Hg10 mi
6:15 AM40 °FClear.17 mph93%30.03 "Hg10 mi
5:55 AM39 °FClear.13 mph94%30.03 "Hg10 mi
5:35 AM40 °FClear.16 mph94%30.03 "Hg10 mi
5:15 AM40 °FClear.18 mph94%30.02 "Hg10 mi
4:55 AM39 °FClear.18 mph94%30.01 "Hg10 mi
4:35 AM40 °FClear.17 mph93%30.01 "Hg10 mi
4:15 AM40 °FClear.18 mph92%30.01 "Hg10 mi
3:55 AM40 °FClear.16 mph91%30.00 "Hg10 mi
3:35 AM40 °FClear.14 mph91%30.00 "Hg10 mi
3:15 AM40 °FClear.14 mph90%30.01 "Hg10 mi
2:55 AM40 °FClear.18 mph91%30.00 "Hg10 mi
2:35 AM40 °FClear.15 mph91%30.00 "Hg10 mi
2:15 AM40 °FPassing clouds.15 mph92%30.00 "Hg10 mi
1:55 AM41 °FPassing clouds.14 mph92%30.01 "Hg10 mi
1:35 AM41 °FPassing clouds.14 mph92%30.02 "Hg10 mi
1:15 AM41 °FPassing clouds.13 mph92%30.03 "Hg10 mi
12:55 AM40 °FOvercast.13 mph92%30.03 "Hg10 mi
12:15 AM41 °FPassing clouds.13 mph92%30.04 "Hg10 mi
11:55 PM
Oct 23
40 °FPassing clouds.15 mph92%30.04 "Hg10 mi
11:15 PM41 °FPassing clouds.15 mph92%30.04 "Hg10 mi
10:55 PM40 °FPassing clouds.16 mph92%30.04 "Hg10 mi
10:35 PM40 °FOvercast.12 mph92%30.05 "Hg10 mi
10:15 PM41 °FOvercast.15 mph91%30.05 "Hg10 mi
9:55 PM41 °FOvercast.17 mph91%30.04 "Hg10 mi
9:35 PM40 °FLow clouds.17 mph92%30.04 "Hg10 mi
9:15 PM40 °FLow clouds.17 mph93%30.02 "Hg10 mi
8:55 PM40 °FLow clouds.20 mph92%30.02 "Hg10 mi
8:35 PM40 °FLow clouds.20 mph93%30.03 "Hg10 mi
8:15 PM40 °FLow clouds.23 mph93%30.01 "Hg10 mi
7:55 PM40 °FPassing clouds.18 mph93%30.01 "Hg10 mi
7:35 PM40 °FPassing clouds.18 mph93%30.00 "Hg10 mi
7:15 PM40 °FScattered clouds.23 mph92%30.00 "Hg10 mi
6:55 PM40 °FLow clouds.16 mph93%30.01 "Hg10 mi
6:35 PM41 °FLow clouds.17 mph93%30.01 "Hg10 mi
6:15 PM41 °FLow clouds.17 mph90%30.01 "Hg10 mi
5:55 PM42 °FLow clouds.21 mph88%30.01 "Hg10 mi
5:15 PM42 °FLow clouds.20 mph87%30.00 "Hg10 mi
4:55 PM43 °FOvercast.23 mph84%30.00 "Hg10 mi
4:35 PM44 °FOvercast.15 mph81%30.00 "Hg10 mi
4:15 PM45 °FOvercast.14 mph79%30.00 "Hg10 mi
3:55 PM46 °FOvercast.14 mph76%30.00 "Hg10 mi
3:30 PM46 °FOvercast.12 mph75%30.01 "Hg10 mi
3:15 PM47 °FPartly sunny.14 mph72%30.00 "Hg10 mi
2:55 PM48 °FPartly sunny.16 mph71%30.00 "Hg10 mi
2:15 PM49 °FScattered clouds.17 mph70%30.00 "Hg10 mi
Weather by CustomWeather, © 2014

See weather overviewHow to use our weather pages